Weather History for Coeur d'Alene, ID

Change the Weather History Date:

Thursday, May 10, 2012

  Actual Average Record
Temperature  
Mean Temperature 44 °F -  
Max Temperature 55 °F 60 °F 84 °F (2013)
Min Temperature 32 °F 37 °F 28 °F (1999)
Degree Days  
Heating Degree Days 22    
Moisture  
Dew Point 20 °F    
Average Humidity 39    
Maximum Humidity 65    
Minimum Humidity 18    
Precipitation  
Precipitation 0.00 in - - ()
Sea Level Pressure  
Sea Level Pressure 30.18 in    
Wind  
Wind Speed 9 mph (WSW)    
Max Wind Speed 17 mph    
Max Gust Speed 30 mph    
Visibility 10 miles    
Events      
Averages and records for this station are not official NWS values.
T = Trace of Precipitation, MM = Missing Value Source: NWS Daily Summary

Daily Weather History Graph

Daily Weather History Graph

Search for Another Location

Airport:

Trip Planner

Search our weather history database for the weather conditions in past years. The results will help you decide how hot, cold, wet, or windy it might be!

Date:

Astronomy

May. 10, 2012 Rise Set
Actual Time 5:15 AM PDT 8:12 PM PDT
Civil Twilight 4:39 AM PDT 8:49 PM PDT
Nautical Twilight 3:52 AM PDT 9:35 PM PDT
Astronomical Twilight 2:56 AM PDT 10:32 PM PDT
Moon 12:16 AM PDT (5/10) 9:44 AM PDT (5/10)
Length of Visible Light 16h 10m
Length of Day
14h 57m
Waning Gibbous, 72% of the Moon is Illuminated
May 10
Waning Gibbous
May 12
Last Quarter
May 20
New
May 28
First Quarter
Jun 4
Full

Hourly Weather History & Observations

Time (PDT) Temp. Windchill Dew Point Humidity Pressure Visibility Wind Dir Wind Speed Gust Speed Precip Events Conditions
12:15 AM 44.6 °F 38.1 °F 19.4 °F 37% 30.02 in 10.0 mi WSW 13.8 mph - N/A   Clear
12:35 AM 42.8 °F 37.5 °F 19.4 °F 39% 30.02 in 10.0 mi SW 9.2 mph - N/A   Clear
12:55 AM 42.8 °F 39.3 °F 17.6 °F 36% 30.04 in 10.0 mi SSE 5.8 mph - N/A   Clear
1:15 AM 42.8 °F 38.0 °F 17.6 °F 36% 30.04 in 10.0 mi SW 8.1 mph - N/A   Clear
1:35 AM 42.8 °F 37.0 °F 17.6 °F 36% 30.05 in 10.0 mi WSW 10.4 mph 16.1 mph N/A   Clear
1:55 AM 41.0 °F 34.3 °F 17.6 °F 39% 30.06 in 10.0 mi WSW 11.5 mph - N/A   Clear
2:15 AM 41.0 °F 37.1 °F 17.6 °F 39% 30.07 in 10.0 mi WSW 5.8 mph - N/A   Clear
2:35 AM 37.4 °F 30.3 °F 17.6 °F 45% 30.07 in 10.0 mi WSW 10.4 mph - N/A   Clear
2:55 AM 37.4 °F 31.4 °F 17.6 °F 45% 30.08 in 10.0 mi WSW 8.1 mph - N/A   Clear
3:15 AM 37.4 °F 29.8 °F 17.6 °F 45% 30.08 in 10.0 mi West 11.5 mph - N/A   Clear
3:35 AM 35.6 °F 29.2 °F 17.6 °F 48% 30.10 in 10.0 mi West 8.1 mph - N/A   Clear
3:55 AM 33.8 °F 28.6 °F 17.6 °F 52% 30.11 in 10.0 mi West 5.8 mph - N/A   Clear
4:15 AM 32.0 °F 28.7 °F 17.6 °F 55% 30.11 in 10.0 mi WSW 3.5 mph - N/A   Clear
4:35 AM 35.6 °F 29.9 °F 17.6 °F 48% 30.11 in 10.0 mi WSW 6.9 mph - N/A   Clear
4:55 AM 33.8 °F 29.6 °F 17.6 °F 52% 30.13 in 10.0 mi SSW 4.6 mph - N/A   Clear
5:15 AM 33.8 °F 27.0 °F 21.2 °F 60% 30.13 in 10.0 mi WSW 8.1 mph - N/A   Clear
5:35 AM 35.6 °F 28.6 °F 19.4 °F 52% 30.14 in 10.0 mi WSW 9.2 mph - N/A   Clear
5:55 AM 35.6 °F 32.8 °F 21.2 °F 56% 30.16 in 10.0 mi SSW 3.5 mph - N/A   Clear
6:15 AM 37.4 °F 32.1 °F 19.4 °F 48% 30.17 in 10.0 mi SSW 6.9 mph - N/A   Clear
6:35 AM 37.4 °F 30.8 °F 23.0 °F 56% 30.18 in 10.0 mi WSW 9.2 mph - N/A   Clear
6:55 AM 39.2 °F 32.5 °F 21.2 °F 49% 30.19 in 10.0 mi WSW 10.4 mph - N/A   Clear
7:15 AM 41.0 °F 34.7 °F 21.2 °F 45% 30.21 in 10.0 mi WSW 10.4 mph 17.3 mph N/A   Clear
7:35 AM 42.8 °F 37.0 °F 21.2 °F 42% 30.21 in 10.0 mi WSW 10.4 mph - N/A   Clear
7:55 AM 42.8 °F 37.0 °F 23.0 °F 46% 30.21 in 10.0 mi SW 10.4 mph - N/A   Clear
8:15 AM 44.6 °F 39.2 °F 23.0 °F 43% 30.22 in 10.0 mi SW 10.4 mph - N/A   Clear
8:35 AM 44.6 °F 39.7 °F 23.0 °F 43% 30.22 in 10.0 mi WSW 9.2 mph - N/A   Clear
8:55 AM 44.6 °F 39.2 °F 23.0 °F 43% 30.22 in 10.0 mi WSW 10.4 mph - N/A   Clear
9:15 AM 46.4 °F 43.5 °F 21.2 °F 37% 30.22 in 10.0 mi SSE 5.8 mph - N/A   Clear
9:35 AM 46.4 °F 45.2 °F 23.0 °F 40% 30.22 in 10.0 mi NNE 3.5 mph - N/A   Clear
9:55 AM 48.2 °F - 23.0 °F 37% 30.22 in 10.0 mi Calm Calm - N/A   Clear
10:15 AM 48.2 °F - 21.2 °F 34% 30.23 in 10.0 mi NW 8.1 mph - N/A   Clear
10:35 AM 48.2 °F - 23.0 °F 37% 30.23 in 10.0 mi Calm Calm - N/A   Clear
10:55 AM 50.0 °F - 28.4 °F 43% 30.23 in 10.0 mi SW 15.0 mph - N/A   Clear
11:15 AM 51.8 °F - 24.8 °F 35% 30.23 in 10.0 mi WSW 13.8 mph 17.3 mph N/A   Clear
11:35 AM 51.8 °F - 24.8 °F 35% 30.23 in 10.0 mi SW 12.7 mph 21.9 mph N/A   Partly Cloudy
11:55 AM 51.8 °F - 24.8 °F 35% 30.23 in 10.0 mi WSW 8.1 mph 21.9 mph N/A   Partly Cloudy
12:15 PM 51.8 °F - 21.2 °F 30% 30.23 in 10.0 mi West 12.7 mph 20.7 mph N/A   Scattered Clouds
12:35 PM 51.8 °F - 26.6 °F 38% 30.22 in 10.0 mi SW 15.0 mph 23.0 mph N/A   Mostly Cloudy
1:15 PM 51.8 °F - 30.2 °F 44% 30.22 in 10.0 mi SSW 10.4 mph 19.6 mph N/A   Overcast
1:35 PM 51.8 °F - 21.2 °F 30% 30.22 in 10.0 mi West 15.0 mph 20.7 mph N/A   Mostly Cloudy
1:55 PM 53.6 °F - 19.4 °F 26% 30.22 in 10.0 mi West 17.3 mph 24.2 mph N/A   Scattered Clouds
2:15 PM 53.6 °F - 21.2 °F 28% 30.22 in 10.0 mi WSW 8.1 mph 20.7 mph N/A   Scattered Clouds
2:35 PM 53.6 °F - 17.6 °F 24% 30.21 in 10.0 mi SW 12.7 mph 18.4 mph N/A   Mostly Cloudy
2:55 PM 53.6 °F - 10.4 °F 18% 30.21 in 10.0 mi SW 10.4 mph - N/A   Mostly Cloudy
3:15 PM 53.6 °F - 14.0 °F 21% 30.21 in 10.0 mi West 13.8 mph 24.2 mph N/A   Mostly Cloudy
3:35 PM 53.6 °F - 17.6 °F 24% 30.20 in 10.0 mi West 16.1 mph 24.2 mph N/A   Mostly Cloudy
3:55 PM 55.4 °F - 19.4 °F 25% 30.20 in 10.0 mi West 12.7 mph 26.5 mph N/A   Overcast
4:15 PM 53.6 °F - 17.6 °F 24% 30.20 in 10.0 mi WSW 15.0 mph - N/A   Scattered Clouds
4:35 PM 55.4 °F - 17.6 °F 23% 30.19 in 10.0 mi WSW 16.1 mph 29.9 mph N/A   Clear
4:55 PM 55.4 °F - 17.6 °F 23% 30.19 in 10.0 mi West 13.8 mph 21.9 mph N/A   Partly Cloudy
5:15 PM 55.4 °F - 15.8 °F 21% 30.19 in 10.0 mi West 13.8 mph 20.7 mph N/A   Partly Cloudy
5:35 PM 53.6 °F - 15.8 °F 22% 30.18 in 10.0 mi WSW 13.8 mph 21.9 mph N/A   Clear
5:55 PM 55.4 °F - 15.8 °F 21% 30.18 in 10.0 mi WNW 15.0 mph 20.7 mph N/A   Clear
6:15 PM 53.6 °F - 15.8 °F 22% 30.18 in 10.0 mi WSW 12.7 mph 21.9 mph N/A   Clear
6:35 PM 53.6 °F - 15.8 °F 22% 30.18 in 10.0 mi WSW 6.9 mph - N/A   Clear
6:55 PM 53.6 °F - 15.8 °F 22% 30.18 in 10.0 mi West 11.5 mph - N/A   Clear
7:15 PM 51.8 °F - 14.0 °F 22% 30.19 in 10.0 mi West 9.2 mph - N/A   Clear
7:35 PM 50.0 °F - 15.8 °F 26% 30.19 in 10.0 mi West 8.1 mph - N/A   Clear
7:55 PM 48.2 °F - 17.6 °F 30% 30.18 in 10.0 mi West 3.5 mph - N/A   Clear
8:15 PM 44.6 °F 42.2 °F 21.2 °F 39% 30.18 in 10.0 mi West 4.6 mph - N/A   Clear
8:35 PM 44.6 °F - 21.2 °F 39% 30.19 in 10.0 mi Calm Calm - N/A   Clear
8:55 PM 44.6 °F - 21.2 °F 39% 30.20 in 10.0 mi Calm Calm - N/A   Clear
9:15 PM 39.2 °F 35.0 °F 21.2 °F 49% 30.20 in 10.0 mi SSW 5.8 mph - N/A   Clear
9:35 PM 39.2 °F 35.9 °F 21.2 °F 49% 30.21 in 10.0 mi SW 4.6 mph - N/A   Clear
9:55 PM 39.2 °F 37.0 °F 21.2 °F 49% 30.21 in 10.0 mi SSW 3.5 mph - N/A   Clear
10:15 PM 42.8 °F 40.1 °F 23.0 °F 46% 30.21 in 10.0 mi SE 4.6 mph - N/A   Clear
10:35 PM 39.2 °F 37.0 °F 24.8 °F 56% 30.21 in 10.0 mi SE 3.5 mph - N/A   Clear
10:55 PM 39.2 °F 35.9 °F 26.6 °F 61% 30.22 in 10.0 mi SE 4.6 mph - N/A   Clear
11:15 PM 39.2 °F - 26.6 °F 61% 30.23 in 10.0 mi Calm Calm - N/A   Clear
11:35 PM 37.4 °F 34.9 °F 26.6 °F 65% 30.23 in 10.0 mi SE 3.5 mph - N/A   Clear
11:55 PM 37.4 °F - 26.6 °F 65% 30.23 in 10.0 mi Calm Calm - N/A   Clear